Other Surface Observations
Issued by NWS Jacksonville, FL

Home | Current Version | Previous Version | Text Only | Print | Product List | Glossary On
Versions: 1 2 3 4 5 6 7 8 9 10 11 12 13 14 15 16 17 18 19 20 21 22 23 24 25 26 27 28 29 30 31 32 33 34 35 36 37 38 39 40 41 42 43 44 45 46 47 48 49 50
000
SXUS52 KJAX 031513
OSOJAX
OTHER SURFACE OBSERVATIONS
NATIONAL WEATHER SERVICE JACKSONVILLE FL
1100 AM EDT FRI JUL 03 2015

FLZ020>025-030>033-035>038-040-031600-
...FLORIDA...

CITY           SKY/WX    TMP DP  RH WIND       PRES   REMARKS
CECIL FIELD    SUNNY     86  73  66 SW12      30.09F
HERLONG FIELD  NOT AVBL
FERNANDINA BCH NOT AVBL
LAKE CITY      PTSUNNY   84  75  74 W10       30.10S
JUNIPER SPGS   NOT AVBL
BUNNELL        NOT AVBL
KEYSTONE HGTS  PTSUNNY   84  75  74 W7        30.10S
$$

GAZ132>136-149>154-162>166-031600-
...GEORGIA...

CITY           SKY/WX    TMP DP  RH WIND       PRES   REMARKS
JESUP          FAIR      88  73  62 W12       30.06S
HOMERVILLE     FAIR      86  75  70 W12       30.08F
SWAINSBORO     CLOUDY    86  77  74 W10G20    30.03F
CORDELE        NOT AVBL
EASTMAN        PTSUNNY   85  74  68 W8G17     30.07S
$$

PLEASE NOTE:  THESE OBSERVATIONS ARE NOT QUALITY CONTROLLED AND MAY
NOT BE AVAILABLE AT ALL TIMES.
$$



USA.gov is the U.S. government's official web portal to all federal, state and local government web resources and services.